| time (UTC) | temp C | wind direction | speed KPH | gust KPH | rain 1hr cm | rain 24hr cm | rain mn cm | humidity % | barometer mb |
| 20260510201103 | 16 | 351 | 3.2 | 8.0 | 0.00 | 0.00 | 0.00 | 72 | 1006.0 |
| 20260510200559 | 16 | 5 | 3.2 | 8.0 | 0.00 | 0.00 | 0.00 | 72 | 1006.0 |
| 20260510200059 | 16 | 347 | 3.2 | 6.4 | 0.00 | 0.00 | 0.00 | 72 | 1006.1 |
| 20260510195559 | 16 | 347 | 3.2 | 6.4 | 0.00 | 0.00 | 0.00 | 72 | 1006.0 |
| 20260510195058 | 16 | 346 | 1.6 | 4.8 | 0.00 | 0.00 | 0.00 | 72 | 1006.1 |
| 20260510194601 | 16 | 346 | 1.6 | 6.4 | 0.00 | 0.00 | 0.00 | 71 | 1006.2 |
| 20260510194100 | 16 | 346 | 1.6 | 6.4 | 0.00 | 0.00 | 0.00 | 70 | 1006.2 |
| 20260510193557 | 16 | 346 | 3.2 | 6.4 | 0.00 | 0.00 | 0.00 | 70 | 1006.2 |
| 20260510193059 | 16 | 347 | 3.2 | 6.4 | 0.00 | 0.00 | 0.00 | 69 | 1006.2 |
| 20260510192558 | 16 | 347 | 3.2 | 6.4 | 0.00 | 0.00 | 0.00 | 68 | 1006.2 |
| 20260510192057 | 16 | 346 | 1.6 | 8.0 | 0.00 | 0.00 | 0.00 | 68 | 1006.2 |
| 20260510191601 | 17 | 344 | 3.2 | 8.0 | 0.00 | 0.00 | 0.00 | 67 | 1006.3 |
| 20260510191057 | 17 | 346 | 3.2 | 6.4 | 0.00 | 0.00 | 0.00 | 66 | 1006.2 |
| 20260510190556 | 17 | 350 | 3.2 | 4.8 | 0.00 | 0.00 | 0.00 | 65 | 1006.2 |
| 20260510190103 | 17 | 348 | 3.2 | 4.8 | 0.00 | 0.00 | 0.00 | 64 | 1006.3 |
| 20260510185557 | 17 | 348 | 1.6 | 6.4 | 0.00 | 0.00 | 0.00 | 63 | 1006.3 |
| 20260510185056 | 17 | 355 | 3.2 | 8.0 | 0.00 | 0.00 | 0.00 | 62 | 1006.3 |
| 20260510184555 | 18 | 351 | 3.2 | 8.0 | 0.00 | 0.00 | 0.00 | 62 | 1006.3 |
| 20260510184055 | 18 | 355 | 4.8 | 8.0 | 0.00 | 0.00 | 0.00 | 61 | 1006.3 |
| 20260510183556 | 18 | 339 | 3.2 | 8.0 | 0.00 | 0.00 | 0.00 | 60 | 1006.2 |
| 20260510183055 | 18 | 345 | 3.2 | 9.7 | 0.00 | 0.00 | 0.00 | 59 | 1006.4 |
| 20260510182554 | 18 | 345 | 3.2 | 9.7 | 0.00 | 0.00 | 0.00 | 59 | 1006.4 |
| 20260510182054 | 18 | 12 | 3.2 | 9.7 | 0.00 | 0.00 | 0.00 | 59 | 1006.4 |
| 20260510181606 | 19 | 350 | 3.2 | 9.7 | 0.00 | 0.00 | 0.00 | 58 | 1006.3 |
| 20260510181054 | 19 | 342 | 3.2 | 6.4 | 0.00 | 0.00 | 0.00 | 59 | 1006.5 |
| 20260510180554 | 19 | 5 | 3.2 | 9.7 | 0.00 | 0.00 | 0.00 | 60 | 1006.4 |
| 20260510180058 | 20 | 350 | 1.6 | 9.7 | 0.00 | 0.00 | 0.00 | 60 | 1006.5 |
| 20260510175553 | 20 | 5 | 3.2 | 8.0 | 0.00 | 0.00 | 0.00 | 59 | 1006.5 |
| 20260510175052 | 20 | 334 | 3.2 | 8.0 | 0.00 | 0.00 | 0.00 | 60 | 1006.5 |
| 20260510174552 | 20 | 33 | 3.2 | 9.7 | 0.00 | 0.00 | 0.00 | 60 | 1006.6 |
| 20260510174055 | 20 | 350 | 4.8 | 9.7 | 0.00 | 0.00 | 0.00 | 59 | 1006.5 |
| 20260510173551 | 21 | 48 | 1.6 | 4.8 | 0.00 | 0.00 | 0.00 | 58 | 1006.6 |
| 20260510173051 | 21 | 48 | 1.6 | 4.8 | 0.00 | 0.00 | 0.00 | 57 | 1006.6 |
| 20260510172550 | 21 | 48 | 1.6 | 4.8 | 0.00 | 0.00 | 0.00 | 56 | 1006.7 |
| 20260510172052 | 21 | 48 | 0.0 | 4.8 | 0.00 | 0.00 | 0.00 | 56 | 1006.8 |
| 20260510171557 | 21 | 52 | 0.0 | 6.4 | 0.00 | 0.00 | 0.00 | 55 | 1006.7 |
| 20260510171048 | 21 | 52 | 1.6 | 8.0 | 0.00 | 0.00 | 0.00 | 54 | 1006.8 |
| 20260510170549 | 21 | 46 | 3.2 | 11.3 | 0.00 | 0.00 | 0.00 | 53 | 1006.9 |
| 20260510170112 | 21 | 32 | 1.6 | 11.3 | 0.00 | 0.00 | 0.00 | 53 | 1006.8 |
| 20260510165548 | 22 | 113 | 3.2 | 11.3 | 0.00 | 0.00 | 0.00 | 53 | 1006.9 |
| 20260510165047 | 22 | 71 | 3.2 | 8.0 | 0.00 | 0.00 | 0.00 | 53 | 1006.9 |
| 20260510164600 | 22 | 60 | 3.2 | 6.4 | 0.00 | 0.00 | 0.00 | 53 | 1007.0 |
| 20260510164045 | 22 | 44 | 3.2 | 9.7 | 0.00 | 0.00 | 0.00 | 54 | 1007.1 |
| 20260510163547 | 22 | 59 | 3.2 | 11.3 | 0.00 | 0.00 | 0.00 | 54 | 1007.1 |
| 20260510163045 | 22 | 93 | 3.2 | 11.3 | 0.00 | 0.00 | 0.00 | 53 | 1007.2 |
| 20260510162544 | 22 | 59 | 1.6 | 6.4 | 0.00 | 0.00 | 0.00 | 53 | 1007.2 |
| 20260510162044 | 22 | 11 | 1.6 | 9.7 | 0.00 | 0.00 | 0.00 | 54 | 1007.3 |
| 20260510161544 | 22 | 355 | 3.2 | 8.0 | 0.00 | 0.00 | 0.00 | 52 | 1007.5 |
| 20260510161044 | 22 | 43 | 3.2 | 8.0 | 0.00 | 0.00 | 0.00 | 53 | 1007.4 |
| 20260510160545 | 22 | 15 | 1.6 | 6.4 | 0.00 | 0.00 | 0.00 | 54 | 1007.5 |
| 20260510160043 | 22 | 10 | 3.2 | 6.4 | 0.00 | 0.00 | 0.00 | 54 | 1007.6 |
| 20260510155542 | 22 | 10 | 1.6 | 9.7 | 0.00 | 0.00 | 0.00 | 53 | 1007.6 |
| 20260510155041 | 22 | 355 | 3.2 | 9.7 | 0.00 | 0.00 | 0.00 | 53 | 1007.7 |
| 20260510154541 | 22 | 346 | 3.2 | 8.0 | 0.00 | 0.00 | 0.00 | 53 | 1007.7 |
| 20260510154040 | 22 | 334 | 4.8 | 9.7 | 0.00 | 0.00 | 0.00 | 52 | 1007.9 |
| 20260510153539 | 22 | 343 | 3.2 | 9.7 | 0.00 | 0.00 | 0.00 | 51 | 1008.0 |
| 20260510153049 | 22 | 5 | 4.8 | 9.7 | 0.00 | 0.00 | 0.00 | 50 | 1008.1 |
| 20260510152538 | 22 | 348 | 4.8 | 8.0 | 0.00 | 0.00 | 0.00 | 51 | 1008.2 |
| 20260510152038 | 22 | 348 | 4.8 | 8.0 | 0.00 | 0.00 | 0.00 | 50 | 1008.2 |
| 20260510151538 | 22 | 349 | 4.8 | 8.0 | 0.00 | 0.00 | 0.00 | 50 | 1008.3 |
| 20260510151037 | 22 | 346 | 3.2 | 6.4 | 0.00 | 0.00 | 0.00 | 49 | 1008.4 |
| 20260510150536 | 22 | 5 | 4.8 | 6.4 | 0.00 | 0.00 | 0.00 | 49 | 1008.4 |
| 20260510150036 | 22 | 350 | 3.2 | 8.0 | 0.00 | 0.00 | 0.00 | 48 | 1008.4 |
| 20260510145535 | 22 | 347 | 4.8 | 8.0 | 0.00 | 0.00 | 0.00 | 49 | 1008.6 |
| 20260510145035 | 22 | 346 | 3.2 | 8.0 | 0.00 | 0.00 | 0.00 | 50 | 1008.6 |
| 20260510144535 | 22 | 355 | 1.6 | 9.7 | 0.00 | 0.00 | 0.00 | 48 | 1008.7 |
| 20260510144033 | 22 | 344 | 4.8 | 9.7 | 0.00 | 0.00 | 0.00 | 48 | 1008.8 |
| 20260510143533 | 23 | 348 | 3.2 | 8.0 | 0.00 | 0.00 | 0.00 | 49 | 1008.9 |
| 20260510143032 | 23 | 5 | 1.6 | 8.0 | 0.00 | 0.00 | 0.00 | 48 | 1009.0 |
| 20260510142532 | 23 | 46 | 0.0 | 6.4 | 0.00 | 0.00 | 0.00 | 47 | 1009.0 |
| 20260510142032 | 23 | 25 | 1.6 | 6.4 | 0.00 | 0.00 | 0.00 | 50 | 1009.2 |
| 20260510141534 | 22 | 24 | 3.2 | 8.0 | 0.00 | 0.00 | 0.00 | 47 | 1009.2 |
| 20260510141031 | 23 | 340 | 3.2 | 12.9 | 0.00 | 0.00 | 0.00 | 48 | 1009.2 |
| 20260510140532 | 22 | 351 | 6.4 | 12.9 | 0.00 | 0.00 | 0.00 | 47 | 1009.3 |
| 20260510140030 | 23 | 94 | 3.2 | 8.0 | 0.00 | 0.00 | 0.00 | 48 | 1009.3 |
| 20260510135530 | 23 | 344 | 3.2 | 12.9 | 0.00 | 0.00 | 0.00 | 49 | 1009.3 |
| 20260510135030 | 22 | 342 | 4.8 | 12.9 | 0.00 | 0.00 | 0.00 | 51 | 1009.4 |
| 20260510134530 | 23 | 20 | 3.2 | 9.7 | 0.00 | 0.00 | 0.00 | 49 | 1009.5 |
| 20260510134030 | 23 | 360 | 3.2 | 9.7 | 0.00 | 0.00 | 0.00 | 48 | 1009.5 |
| 20260510133528 | 23 | 5 | 1.6 | 8.0 | 0.00 | 0.00 | 0.00 | 48 | 1009.6 |
| 20260510133028 | 23 | 343 | 1.6 | 6.4 | 0.00 | 0.00 | 0.00 | 50 | 1009.7 |
| 20260510132528 | 23 | 355 | 3.2 | 9.7 | 0.00 | 0.00 | 0.00 | 48 | 1009.6 |
| 20260510132028 | 23 | 340 | 4.8 | 9.7 | 0.00 | 0.00 | 0.00 | 48 | 1009.7 |
| 20260510131527 | 22 | 348 | 4.8 | 9.7 | 0.00 | 0.00 | 0.00 | 49 | 1009.7 |
| 20260510131026 | 22 | 13 | 3.2 | 8.0 | 0.00 | 0.00 | 0.00 | 50 | 1009.7 |
| 20260510130526 | 22 | 345 | 1.6 | 9.7 | 0.00 | 0.00 | 0.00 | 53 | 1009.8 |
| 20260510130040 | 22 | 345 | 4.8 | 9.7 | 0.00 | 0.00 | 0.00 | 52 | 1009.8 |
| 20260510125524 | 22 | 355 | 3.2 | 8.0 | 0.00 | 0.00 | 0.00 | 53 | 1009.9 |
| 20260510125027 | 22 | 347 | 3.2 | 8.0 | 0.00 | 0.00 | 0.00 | 54 | 1009.9 |
| 20260510124527 | 23 | 350 | 1.6 | 8.0 | 0.00 | 0.00 | 0.00 | 54 | 1010.0 |
| 20260510124023 | 22 | 9 | 3.2 | 6.4 | 0.00 | 0.00 | 0.00 | 54 | 1010.1 |
| 20260510123523 | 22 | 47 | 3.2 | 8.0 | 0.00 | 0.00 | 0.00 | 53 | 1010.2 |
| 20260510123023 | 22 | 350 | 3.2 | 8.0 | 0.00 | 0.00 | 0.00 | 54 | 1010.3 |
| 20260510122522 | 22 | 5 | 3.2 | 8.0 | 0.00 | 0.00 | 0.00 | 53 | 1010.3 |
| 20260510122022 | 22 | 347 | 0.0 | 8.0 | 0.00 | 0.00 | 0.00 | 54 | 1010.3 |
| 20260510121521 | 22 | 347 | 3.2 | 8.0 | 0.00 | 0.00 | 0.00 | 54 | 1010.3 |
| 20260510121021 | 22 | 355 | 3.2 | 8.0 | 0.00 | 0.00 | 0.00 | 54 | 1010.4 |
| 20260510120521 | 22 | 5 | 3.2 | 8.0 | 0.00 | 0.00 | 0.00 | 53 | 1010.5 |
| 20260510120028 | 23 | 355 | 3.2 | 8.0 | 0.00 | 0.00 | 0.00 | 53 | 1010.5 |
| 20260510115520 | 23 | 344 | 0.0 | 9.7 | 0.00 | 0.00 | 0.00 | 55 | 1010.6 |
| 20260510115021 | 22 | 16 | 1.6 | 8.0 | 0.00 | 0.00 | 0.00 | 55 | 1010.6 |
| 20260510114519 | 22 | 37 | 3.2 | 14.5 | 0.00 | 0.00 | 0.00 | 54 | 1010.7 |
| 20260510114018 | 22 | 344 | 4.8 | 14.5 | 0.00 | 0.00 | 0.00 | 55 | 1010.9 |
| 20260510113517 | 23 | 5 | 0.0 | 6.4 | 0.00 | 0.00 | 0.00 | 56 | 1011.1 |
| 20260510113016 | 22 | 5 | 1.6 | 6.4 | 0.00 | 0.00 | 0.00 | 56 | 1011.0 |
| 20260510112518 | 22 | 5 | 3.2 | 6.4 | 0.00 | 0.00 | 0.00 | 52 | 1011.1 |
| 20260510112016 | 23 | 40 | 1.6 | 6.4 | 0.00 | 0.00 | 0.00 | 53 | 1011.2 |
| 20260510111515 | 22 | 57 | 0.0 | 8.0 | 0.00 | 0.00 | 0.00 | 54 | 1011.3 |
| 20260510111014 | 22 | 57 | 3.2 | 12.9 | 0.00 | 0.00 | 0.00 | 55 | 1011.4 |
| 20260510110514 | 22 | 351 | 0.0 | 9.7 | 0.00 | 0.00 | 0.00 | 57 | 1011.3 |
| 20260510110026 | 22 | 355 | 1.6 | 9.7 | 0.00 | 0.00 | 0.00 | 56 | 1011.4 |
| 20260510105512 | 22 | 346 | 1.6 | 6.4 | 0.00 | 0.00 | 0.00 | 56 | 1011.4 |
| 20260510105012 | 22 | 346 | 1.6 | 8.0 | 0.00 | 0.00 | 0.00 | 56 | 1011.5 |
| 20260510104511 | 22 | 344 | 4.8 | 8.0 | 0.00 | 0.00 | 0.00 | 55 | 1011.6 |
| 20260510104012 | 22 | 346 | 1.6 | 9.7 | 0.00 | 0.00 | 0.00 | 55 | 1011.7 |
| 20260510103509 | 22 | 316 | 1.6 | 6.4 | 0.00 | 0.00 | 0.00 | 59 | 1011.7 |
| 20260510103009 | 22 | 312 | 1.6 | 9.7 | 0.00 | 0.00 | 0.00 | 58 | 1011.8 |
| 20260510102507 | 21 | 349 | 1.6 | 8.0 | 0.00 | 0.00 | 0.00 | 59 | 1011.9 |
| 20260510102009 | 21 | 346 | 1.6 | 9.7 | 0.00 | 0.00 | 0.00 | 58 | 1011.9 |
| 20260510101508 | 21 | 337 | 1.6 | 9.7 | 0.00 | 0.00 | 0.00 | 61 | 1011.9 |
| 20260510101005 | 21 | 334 | 3.2 | 9.7 | 0.00 | 0.00 | 0.00 | 61 | 1012.0 |
| 20260510100504 | 21 | 344 | 3.2 | 8.0 | 0.00 | 0.00 | 0.00 | 60 | 1012.0 |
| 20260510100004 | 20 | 355 | 1.6 | 9.7 | 0.00 | 0.00 | 0.00 | 61 | 1012.1 |
| 20260510095503 | 20 | 342 | 3.2 | 8.0 | 0.00 | 0.00 | 0.00 | 62 | 1012.1 |
| 20260510095002 | 20 | 17 | 3.2 | 9.7 | 0.00 | 0.00 | 0.00 | 61 | 1012.2 |
| 20260510094501 | 20 | 339 | 1.6 | 14.5 | 0.00 | 0.00 | 0.00 | 62 | 1012.2 |
| 20260510094000 | 20 | 344 | 3.2 | 8.0 | 0.00 | 0.00 | 0.00 | 61 | 1012.3 |
| 20260510093600 | 20 | 343 | 0.0 | 8.0 | 0.00 | 0.00 | 0.00 | 62 | 1012.2 |
| 20260510093107 | 20 | 339 | 3.2 | 6.4 | 0.00 | 0.00 | 0.00 | 62 | 1012.4 |
| 20260510092600 | 20 | 339 | 1.6 | 8.0 | 0.00 | 0.00 | 0.00 | 63 | 1012.4 |
| 20260510092058 | 20 | 338 | 3.2 | 8.0 | 0.00 | 0.00 | 0.00 | 62 | 1012.5 |
| 20260510091558 | 20 | 338 | 0.0 | 4.8 | 0.00 | 0.00 | 0.00 | 63 | 1012.5 |
| 20260510091058 | 20 | 338 | 1.6 | 8.0 | 0.00 | 0.00 | 0.00 | 61 | 1012.6 |
| 20260510090555 | 19 | 334 | 1.6 | 9.7 | 0.00 | 0.00 | 0.00 | 64 | 1012.6 |
| 20260510090055 | 19 | 333 | 3.2 | 9.7 | 0.00 | 0.00 | 0.00 | 62 | 1012.6 |
| 20260510085553 | 18 | 341 | 0.0 | 8.0 | 0.00 | 0.00 | 0.00 | 65 | 1012.6 |
| 20260510085055 | 18 | 345 | 1.6 | 6.4 | 0.00 | 0.00 | 0.00 | 65 | 1012.8 |
| 20260510084552 | 18 | 355 | 1.6 | 6.4 | 0.00 | 0.00 | 0.00 | 66 | 1012.8 |
| 20260510084051 | 18 | 355 | 3.2 | 8.0 | 0.00 | 0.00 | 0.00 | 66 | 1012.8 |
| 20260510083552 | 17 | 5 | 1.6 | 8.0 | 0.00 | 0.00 | 0.00 | 67 | 1012.8 |
| 20260510083059 | 18 | 339 | 3.2 | 6.4 | 0.00 | 0.00 | 0.00 | 66 | 1012.9 |
| 20260510082549 | 18 | 345 | 3.2 | 6.4 | 0.00 | 0.00 | 0.00 | 69 | 1013.0 |
| 20260510082047 | 17 | 5 | 1.6 | 8.0 | 0.00 | 0.00 | 0.00 | 70 | 1013.0 |
| 20260510081546 | 17 | 5 | 3.2 | 9.7 | 0.00 | 0.00 | 0.00 | 71 | 1013.2 |
| 20260510081045 | 17 | 339 | 4.8 | 9.7 | 0.00 | 0.00 | 0.00 | 71 | 1013.3 |
| 20260510080545 | 17 | 340 | 4.8 | 9.7 | 0.00 | 0.00 | 0.00 | 71 | 1013.2 |
| 20260510080045 | 16 | 324 | 3.2 | 12.9 | 0.00 | 0.00 | 0.00 | 73 | 1013.2 |
| 20260510075543 | 16 | 331 | 4.8 | 12.9 | 0.00 | 0.00 | 0.00 | 73 | 1013.3 |
| 20260510075047 | 16 | 15 | 1.6 | 8.0 | 0.00 | 0.00 | 0.00 | 73 | 1013.3 |
| 20260510074542 | 16 | 15 | 3.2 | 8.0 | 0.00 | 0.00 | 0.00 | 74 | 1013.3 |
| 20260510074040 | 16 | 339 | 3.2 | 8.0 | 0.00 | 0.00 | 0.00 | 75 | 1013.4 |
| 20260510073539 | 16 | 346 | 3.2 | 8.0 | 0.00 | 0.00 | 0.00 | 77 | 1013.5 |
| 20260510073038 | 15 | 349 | 3.2 | 12.9 | 0.00 | 0.00 | 0.00 | 77 | 1013.6 |
| 20260510072539 | 15 | 338 | 3.2 | 9.7 | 0.00 | 0.00 | 0.00 | 78 | 1013.5 |
| 20260510072037 | 15 | 346 | 3.2 | 8.0 | 0.00 | 0.00 | 0.00 | 77 | 1013.6 |
| 20260510071537 | 15 | 347 | 1.6 | 8.0 | 0.00 | 0.00 | 0.00 | 77 | 1013.6 |
| 20260510071034 | 15 | 348 | 3.2 | 9.7 | 0.00 | 0.00 | 0.00 | 78 | 1013.8 |
| 20260510070534 | 14 | 351 | 4.8 | 9.7 | 0.00 | 0.00 | 0.00 | 78 | 1013.8 |
| 20260510070036 | 14 | 343 | 1.6 | 8.0 | 0.00 | 0.00 | 0.00 | 79 | 1013.8 |
| 20260510065535 | 14 | 345 | 3.2 | 8.0 | 0.00 | 0.00 | 0.00 | 80 | 1013.8 |
| 20260510065033 | 13 | 347 | 1.6 | 9.7 | 0.00 | 0.00 | 0.00 | 81 | 1013.7 |
| 20260510064535 | 13 | 346 | 3.2 | 8.0 | 0.00 | 0.00 | 0.00 | 81 | 1013.8 |
| 20260510064029 | 13 | 340 | 3.2 | 6.4 | 0.00 | 0.00 | 0.00 | 80 | 1013.7 |
| 20260510063529 | 13 | 339 | 3.2 | 9.7 | 0.00 | 0.00 | 0.00 | 82 | 1013.8 |
| 20260510063031 | 12 | 338 | 4.8 | 9.7 | 0.00 | 0.00 | 0.00 | 82 | 1013.8 |
| 20260510062528 | 12 | 321 | 1.6 | 8.0 | 0.00 | 0.00 | 0.00 | 84 | 1013.8 |
| 20260510062028 | 12 | 321 | 3.2 | 8.0 | 0.00 | 0.00 | 0.00 | 84 | 1013.7 |
| 20260510061528 | 11 | 321 | 3.2 | 8.0 | 0.00 | 0.00 | 0.00 | 85 | 1013.7 |
| 20260510061028 | 11 | 331 | 4.8 | 8.0 | 0.00 | 0.00 | 0.00 | 85 | 1013.7 |
| 20260510060531 | 11 | 341 | 3.2 | 8.0 | 0.00 | 0.00 | 0.00 | 86 | 1013.8 |
| 20260510060032 | 11 | 340 | 3.2 | 9.7 | 0.00 | 0.00 | 0.00 | 86 | 1013.8 |
| 20260510055532 | 11 | 347 | 3.2 | 6.4 | 0.00 | 0.00 | 0.00 | 87 | 1013.9 |
| 20260510055027 | 11 | 347 | 3.2 | 6.4 | 0.00 | 0.00 | 0.00 | 87 | 1013.8 |
| 20260510054531 | 11 | 347 | 1.6 | 6.4 | 0.00 | 0.00 | 0.00 | 87 | 1013.9 |
| 20260510054029 | 10 | 347 | 1.6 | 6.4 | 0.00 | 0.00 | 0.00 | 88 | 1013.8 |
| 20260510053526 | 10 | 347 | 1.6 | 6.4 | 0.00 | 0.00 | 0.00 | 88 | 1013.8 |
| 20260510053029 | 10 | 347 | 3.2 | 6.4 | 0.00 | 0.00 | 0.00 | 88 | 1013.9 |
| 20260510052527 | 10 | 348 | 3.2 | 8.0 | 0.00 | 0.00 | 0.00 | 88 | 1013.9 |
| 20260510052027 | 10 | 347 | 3.2 | 8.0 | 0.00 | 0.00 | 0.00 | 88 | 1013.9 |
| 20260510051527 | 10 | 341 | 1.6 | 6.4 | 0.00 | 0.00 | 0.00 | 89 | 1013.9 |
| 20260510051026 | 10 | 341 | 3.2 | 6.4 | 0.00 | 0.00 | 0.00 | 89 | 1013.7 |
| 20260510050526 | 10 | 341 | 1.6 | 6.4 | 0.00 | 0.00 | 0.00 | 90 | 1013.7 |
| 20260510050031 | 10 | 341 | 1.6 | 6.4 | 0.00 | 0.00 | 0.00 | 90 | 1013.7 |
| 20260510045527 | 10 | 341 | 3.2 | 6.4 | 0.00 | 0.00 | 0.00 | 90 | 1013.7 |
| 20260510045025 | 9 | 345 | 3.2 | 6.4 | 0.00 | 0.00 | 0.00 | 90 | 1013.7 |
| 20260510044525 | 9 | 345 | 1.6 | 6.4 | 0.00 | 0.00 | 0.00 | 91 | 1013.7 |
| 20260510044024 | 9 | 345 | 1.6 | 6.4 | 0.00 | 0.00 | 0.00 | 91 | 1013.8 |
| 20260510043525 | 9 | 345 | 0.0 | 3.2 | 0.00 | 0.00 | 0.00 | 91 | 1013.9 |
| 20260510043024 | 8 | 345 | 0.0 | 3.2 | 0.00 | 0.00 | 0.00 | 91 | 1013.9 |
| 20260510042523 | 8 | 345 | 0.0 | 3.2 | 0.00 | 0.00 | 0.00 | 91 | 1014.0 |
| 20260510042026 | 8 | 345 | 0.0 | 3.2 | 0.00 | 0.00 | 0.00 | 91 | 1014.0 |
| 20260510041523 | 8 | 345 | 1.6 | 3.2 | 0.00 | 0.00 | 0.00 | 91 | 1013.9 |
| 20260510041024 | 8 | 345 | 0.0 | 4.8 | 0.00 | 0.00 | 0.00 | 91 | 1013.9 |
| 20260510040523 | 8 | 345 | 1.6 | 4.8 | 0.00 | 0.00 | 0.00 | 91 | 1013.9 |
| 20260510040022 | 8 | 345 | 1.6 | 4.8 | 0.00 | 0.00 | 0.00 | 91 | 1013.9 |
| 20260510035521 | 8 | 345 | 0.0 | 0.0 | 0.00 | 0.00 | 0.00 | 91 | 1014.0 |
| 20260510035021 | 8 | 345 | 0.0 | 1.6 | 0.00 | 0.00 | 0.00 | 90 | 1014.0 |
| 20260510034526 | 8 | 345 | 0.0 | 4.8 | 0.00 | 0.00 | 0.00 | 90 | 1014.1 |
| 20260510034021 | 8 | 345 | 1.6 | 6.4 | 0.00 | 0.00 | 0.00 | 91 | 1014.1 |
| 20260510033519 | 8 | 345 | 1.6 | 4.8 | 0.00 | 0.00 | 0.00 | 90 | 1014.2 |
| 20260510033022 | 8 | 345 | 1.6 | 3.2 | 0.00 | 0.00 | 0.00 | 90 | 1014.2 |
| 20260510032517 | 8 | 345 | 0.0 | 3.2 | 0.00 | 0.00 | 0.00 | 90 | 1014.4 |
| 20260510032017 | 8 | 345 | 0.0 | 4.8 | 0.00 | 0.00 | 0.00 | 90 | 1014.4 |
| 20260510031515 | 8 | 345 | 1.6 | 4.8 | 0.00 | 0.00 | 0.00 | 90 | 1014.3 |
| 20260510031014 | 9 | 345 | 3.2 | 4.8 | 0.00 | 0.00 | 0.00 | 90 | 1014.3 |
| 20260510030513 | 9 | 345 | 1.6 | 4.8 | 0.00 | 0.00 | 0.00 | 90 | 1014.4 |
| 20260510030023 | 9 | 345 | 0.0 | 3.2 | 0.00 | 0.00 | 0.00 | 90 | 1014.4 |
| 20260510025513 | 9 | 345 | 1.6 | 4.8 | 0.00 | 0.00 | 0.00 | 90 | 1014.3 |
| 20260510025014 | 9 | 345 | 1.6 | 4.8 | 0.00 | 0.00 | 0.00 | 89 | 1014.4 |
| 20260510024514 | 9 | 345 | 1.6 | 4.8 | 0.00 | 0.00 | 0.00 | 89 | 1014.3 |
| 20260510024011 | 9 | 345 | 1.6 | 8.0 | 0.00 | 0.00 | 0.00 | 89 | 1014.3 |
| 20260510023517 | 9 | 345 | 3.2 | 8.0 | 0.00 | 0.00 | 0.00 | 89 | 1014.4 |
| 20260510023012 | 9 | 348 | 3.2 | 8.0 | 0.00 | 0.00 | 0.00 | 89 | 1014.4 |
| 20260510022515 | 9 | 348 | 3.2 | 8.0 | 0.00 | 0.00 | 0.00 | 90 | 1014.4 |
| 20260510022012 | 9 | 349 | 3.2 | 8.0 | 0.00 | 0.00 | 0.00 | 90 | 1014.4 |
| 20260510021519 | 9 | 350 | 1.6 | 6.4 | 0.00 | 0.00 | 0.00 | 90 | 1014.4 |
| 20260510021010 | 9 | 350 | 1.6 | 4.8 | 0.00 | 0.00 | 0.00 | 89 | 1014.5 |
| 20260510020512 | 9 | 350 | 1.6 | 4.8 | 0.00 | 0.00 | 0.00 | 89 | 1014.5 |
| 20260510020009 | 9 | 350 | 1.6 | 4.8 | 0.00 | 0.00 | 0.00 | 89 | 1014.5 |
| 20260510015510 | 9 | 350 | 0.0 | 4.8 | 0.00 | 0.00 | 0.00 | 90 | 1014.6 |
| 20260510015009 | 9 | 350 | 1.6 | 4.8 | 0.00 | 0.00 | 0.00 | 90 | 1014.5 |
| 20260510014508 | 9 | 350 | 1.6 | 4.8 | 0.00 | 0.00 | 0.00 | 90 | 1014.5 |
| 20260510014007 | 9 | 350 | 0.0 | 3.2 | 0.00 | 0.00 | 0.00 | 89 | 1014.5 |
| 20260510013507 | 9 | 350 | 0.0 | 3.2 | 0.00 | 0.00 | 0.00 | 89 | 1014.4 |
| 20260510013007 | 9 | 350 | 0.0 | 4.8 | 0.00 | 0.00 | 0.00 | 89 | 1014.4 |
| 20260510012506 | 10 | 350 | 1.6 | 4.8 | 0.00 | 0.00 | 0.00 | 89 | 1014.4 |
| 20260510012005 | 9 | 350 | 3.2 | 4.8 | 0.00 | 0.00 | 0.00 | 89 | 1014.6 |
| 20260510011509 | 9 | 350 | 0.0 | 3.2 | 0.00 | 0.00 | 0.00 | 89 | 1014.6 |
| 20260510011004 | 9 | 350 | 0.0 | 3.2 | 0.00 | 0.00 | 0.00 | 89 | 1014.6 |
| 20260510010504 | 9 | 350 | 0.0 | 3.2 | 0.00 | 0.00 | 0.00 | 89 | 1014.6 |
| 20260510010003 | 10 | 350 | 1.6 | 3.2 | 0.00 | 0.00 | 0.00 | 88 | 1014.7 |
| 20260510005503 | 10 | 350 | 1.6 | 3.2 | 0.00 | 0.00 | 0.00 | 88 | 1014.7 |
| 20260510005002 | 10 | 350 | 1.6 | 4.8 | 0.00 | 0.00 | 0.00 | 88 | 1014.7 |
| 20260510004501 | 10 | 350 | 1.6 | 4.8 | 0.00 | 0.00 | 0.00 | 88 | 1014.7 |
| 20260510004100 | 10 | 350 | 1.6 | 3.2 | 0.00 | 0.00 | 0.00 | 88 | 1014.8 |
| 20260510003600 | 10 | 350 | 1.6 | 3.2 | 0.00 | 0.00 | 0.00 | 87 | 1014.8 |
| 20260510003107 | 10 | 350 | 0.0 | 3.2 | 0.00 | 0.00 | 0.00 | 87 | 1014.9 |
| 20260510002558 | 10 | 350 | 0.0 | 3.2 | 0.00 | 0.00 | 0.00 | 87 | 1015.0 |
| 20260510002057 | 10 | 350 | 1.6 | 3.2 | 0.00 | 0.00 | 0.00 | 87 | 1015.1 |
| 20260510001556 | 10 | 350 | 0.0 | 3.2 | 0.00 | 0.00 | 0.00 | 87 | 1015.1 |
| 20260510001057 | 10 | 350 | 0.0 | 3.2 | 0.00 | 0.00 | 0.00 | 86 | 1015.2 |
| 20260510000558 | 10 | 350 | 0.0 | 3.2 | 0.00 | 0.00 | 0.00 | 86 | 1015.2 |
| 20260510000056 | 10 | 350 | 0.0 | 1.6 | 0.00 | 0.00 | 0.00 | 86 | 1015.3 |
| 20260509235553 | 10 | 350 | 0.0 | 3.2 | 0.00 | 0.00 | 0.00 | 85 | 1015.4 |
| 20260509235053 | 11 | 350 | 1.6 | 3.2 | 0.00 | 0.00 | 0.00 | 85 | 1015.5 |
| 20260509234604 | 11 | 350 | 1.6 | 3.2 | 0.00 | 0.00 | 0.00 | 86 | 1015.5 |
| 20260509234052 | 11 | 350 | 0.0 | 3.2 | 0.00 | 0.00 | 0.00 | 85 | 1015.6 |
| 20260509233553 | 11 | 350 | 0.0 | 3.2 | 0.00 | 0.00 | 0.00 | 85 | 1015.6 |
| 20260509233050 | 11 | 350 | 0.0 | 3.2 | 0.00 | 0.00 | 0.00 | 85 | 1015.6 |
| 20260509232552 | 11 | 350 | 0.0 | 1.6 | 0.00 | 0.00 | 0.00 | 85 | 1015.7 |
| 20260509232050 | 11 | 350 | 0.0 | 1.6 | 0.00 | 0.00 | 0.00 | 85 | 1015.8 |
| 20260509231556 | 11 | 350 | 0.0 | 1.6 | 0.00 | 0.00 | 0.00 | 85 | 1015.8 |
| 20260509231048 | 11 | 350 | 0.0 | 1.6 | 0.00 | 0.00 | 0.00 | 84 | 1015.8 |
| 20260509230548 | 11 | 350 | 0.0 | 3.2 | 0.00 | 0.00 | 0.00 | 84 | 1015.7 |
| 20260509230052 | 11 | 350 | 0.0 | 3.2 | 0.00 | 0.00 | 0.00 | 83 | 1015.8 |
| 20260509225549 | 11 | 350 | 0.0 | 3.2 | 0.00 | 0.00 | 0.00 | 84 | 1015.7 |
| 20260509225048 | 11 | 350 | 1.6 | 3.2 | 0.00 | 0.00 | 0.00 | 84 | 1015.8 |
| 20260509224555 | 11 | 350 | 0.0 | 1.6 | 0.00 | 0.00 | 0.00 | 84 | 1015.9 |
| 20260509224045 | 11 | 350 | 0.0 | 3.2 | 0.00 | 0.00 | 0.00 | 83 | 1015.9 |
| 20260509223544 | 11 | 350 | 0.0 | 3.2 | 0.00 | 0.00 | 0.00 | 83 | 1015.8 |
| 20260509223050 | 11 | 350 | 0.0 | 3.2 | 0.00 | 0.00 | 0.00 | 82 | 1015.8 |
| 20260509222541 | 12 | 350 | 0.0 | 3.2 | 0.00 | 0.00 | 0.00 | 81 | 1016.0 |
| 20260509222041 | 12 | 350 | 0.0 | 3.2 | 0.00 | 0.00 | 0.00 | 81 | 1016.0 |
| 20260509221540 | 12 | 350 | 0.0 | 0.0 | 0.00 | 0.00 | 0.00 | 80 | 1016.1 |
| 20260509221038 | 12 | 350 | 0.0 | 1.6 | 0.00 | 0.00 | 0.00 | 78 | 1016.1 |
| 20260509220536 | 13 | 350 | 0.0 | 1.6 | 0.00 | 0.00 | 0.00 | 77 | 1016.1 |
| 20260509220037 | 13 | 350 | 0.0 | 3.2 | 0.00 | 0.00 | 0.00 | 76 | 1016.2 |
| 20260509215536 | 13 | 350 | 0.0 | 4.8 | 0.00 | 0.00 | 0.00 | 76 | 1016.2 |
| 20260509215036 | 13 | 350 | 1.6 | 4.8 | 0.00 | 0.00 | 0.00 | 75 | 1016.2 |
| 20260509214539 | 13 | 350 | 1.6 | 4.8 | 0.00 | 0.00 | 0.00 | 75 | 1016.2 |
| 20260509214034 | 13 | 350 | 1.6 | 4.8 | 0.00 | 0.00 | 0.00 | 75 | 1016.1 |
| 20260509213534 | 13 | 350 | 1.6 | 3.2 | 0.00 | 0.00 | 0.00 | 75 | 1016.3 |
| 20260509213035 | 13 | 350 | 1.6 | 4.8 | 0.00 | 0.00 | 0.00 | 75 | 1016.2 |
| 20260509212534 | 13 | 350 | 3.2 | 4.8 | 0.00 | 0.00 | 0.00 | 75 | 1016.3 |
| 20260509212035 | 13 | 350 | 1.6 | 4.8 | 0.00 | 0.00 | 0.00 | 75 | 1016.4 |
| 20260509211535 | 13 | 350 | 0.0 | 6.4 | 0.00 | 0.00 | 0.00 | 75 | 1016.4 |
| 20260509211034 | 13 | 350 | 1.6 | 6.4 | 0.00 | 0.00 | 0.00 | 75 | 1016.4 |
| 20260509210534 | 13 | 350 | 1.6 | 6.4 | 0.00 | 0.00 | 0.00 | 75 | 1016.2 |
| 20260509210033 | 13 | 350 | 3.2 | 6.4 | 0.00 | 0.00 | 0.00 | 75 | 1016.3 |
| 20260509205533 | 13 | 350 | 1.6 | 4.8 | 0.00 | 0.00 | 0.00 | 75 | 1016.2 |
| 20260509205037 | 13 | 350 | 1.6 | 4.8 | 0.00 | 0.00 | 0.00 | 75 | 1016.1 |
| 20260509204534 | 13 | 350 | 0.0 | 3.2 | 0.00 | 0.00 | 0.00 | 75 | 1016.2 |
| 20260509204034 | 13 | 350 | 0.0 | 1.6 | 0.00 | 0.00 | 0.00 | 74 | 1016.1 |
| 20260509203533 | 13 | 350 | 0.0 | 3.2 | 0.00 | 0.00 | 0.00 | 73 | 1016.1 |
| 20260509203038 | 14 | 350 | 1.6 | 3.2 | 0.00 | 0.00 | 0.00 | 72 | 1016.1 |
| 20260509202533 | 14 | 350 | 0.0 | 3.2 | 0.00 | 0.00 | 0.00 | 72 | 1016.1 |
| 20260509202033 | 14 | 350 | 0.0 | 6.4 | 0.00 | 0.00 | 0.00 | 71 | 1016.0 |
| 20260509201533 | 14 | 350 | 1.6 | 6.4 | 0.00 | 0.00 | 0.00 | 71 | 1016.1 |